Location: Vancouver
(49.2500°N, 123.1330°W)
Time: 02:23:36
(UTC-07:00)

deb Explorer IX - Visible Passes

Search period start: 26 April 2018 00:00
Search period end: 06 May 2018 00:00
Orbit: 550 x 1111 km, 38.8° (Epoch: 25 April)

Date Brightness Start Highest point End Pass type
(mag) Time Alt. Az. Time Alt. Az. Time Alt. Az.
26 Apr ? 21:55:39 10° WSW 22:00:44 24° SSW 22:04:18 16° SSE visible
27 Apr ? 21:35:24 10° WSW 21:40:17 23° SSW 21:44:52 12° SSE visible
28 Apr ? 21:15:10 10° WSW 21:19:50 22° SSW 21:24:55 10° SSE visible
29 Apr ? 20:54:57 10° WSW 20:59:24 21° SSW 21:04:15 10° SSE visible
